Home   Weather   Edinburgh   Past weeks
Flag for United Kingdom

Past Weather in Edinburgh, Scotland, United Kingdom — September 2014

Now
55 °F

Passing clouds.


Feels Like: 52 °F
Forecast: 52 / 42 °F
Wind: 14 mph from Southwest

Location: Edinburgh Airport

Current Time: Apr 8, 2020 at 11:02:46 am

Latest Report: Apr 8, 2020 at 10:20 am


Visibility: N/A

Pressure: 30.21 "Hg

Humidity: 63%

Dew Point: 43 °F

Location of EdinburghLocation

September 2014 Weather in Edinburgh — Graph

°F

High & Low Weather Summary for September 2014

 TemperatureHumidityPressure
High70 °F (Sep 30, 1:50 pm)100% (Sep 3, 3:20 am)30.42 "Hg (Sep 3, 3:20 am)
Low41 °F (Sep 8, 7:20 am)45% (Sep 26, 3:20 pm)29.80 "Hg (Sep 23, 11:50 pm)
Average56 °F85%30.11 "Hg
* Reported Sep 1 12:20 am — Sep 30 11:50 pm, Edinburgh. Weather by CustomWeather, © 2020

Note: Actual official high and low records may vary slightly from our data, if they occured in-between our weather recording intervals... More about our weather records

Edinburgh Weather History for September 1, 2014

Scroll right to see more
 ConditionsComfort  
Time TempWeatherWind HumidityBarometerVisibility
12:20 am
Mon, Sep 1
57 °FOvercast.10 mph88%29.98 "HgN/A
12:50 am57 °FMostly cloudy.7 mph94%29.98 "HgN/A
1:20 am57 °FLight rain. Mostly cloudy.8 mph94%29.98 "Hg4 mi
1:50 am57 °FOvercast.8 mph94%29.98 "HgN/A
2:20 am57 °FMostly cloudy.9 mph94%29.98 "HgN/A
2:50 am57 °FMostly cloudy.7 mph94%29.98 "HgN/A
3:20 am57 °FMostly cloudy.7 mph94%29.98 "HgN/A
3:50 am57 °FOvercast.7 mph94%29.98 "HgN/A
4:20 am57 °FOvercast.6 mph88%29.98 "HgN/A
4:50 am57 °FOvercast.6 mph88%29.98 "HgN/A
5:20 am55 °FOvercast.6 mph94%29.98 "HgN/A
5:50 am55 °FOvercast.8 mph94%30.01 "HgN/A
6:20 am55 °FPassing clouds.8 mph94%30.01 "HgN/A
6:50 am55 °FPassing clouds.6 mph88%30.01 "HgN/A
7:20 am55 °FPartly sunny.6 mph94%30.04 "HgN/A
7:50 am57 °FPartly sunny.6 mph82%30.04 "HgN/A
8:20 am57 °FPartly sunny.7 mph82%30.04 "HgN/A
8:50 am57 °FPartly sunny.9 mph82%30.07 "HgN/A
9:20 am59 °FPartly sunny.7 mph77%30.07 "HgN/A
9:50 am59 °FPartly sunny.7 mph72%30.07 "HgN/A
10:20 am61 °FScattered clouds.7 mph63%30.07 "HgN/A
10:50 am61 °FScattered clouds.8 mph59%30.07 "HgN/A
11:20 am63 °FScattered clouds.7 mph56%30.09 "HgN/A
11:50 am61 °FPartly sunny.8 mph59%30.09 "HgN/A
12:20 pm61 °FPartly sunny.9 mph59%30.09 "HgN/A
12:50 pm61 °FPartly sunny.8 mph55%30.09 "HgN/A
1:20 pm63 °FPartly sunny.8 mph56%30.09 "HgN/A
1:50 pm63 °FPartly sunny.8 mph56%30.09 "HgN/A
2:20 pm61 °FPartly sunny.7 mph59%30.09 "HgN/A
2:50 pm66 °FPartly sunny.6 mph52%30.09 "HgN/A
3:20 pm64 °FPartly sunny.8 mph56%30.12 "HgN/A
3:50 pm63 °FPartly sunny.8 mph56%30.12 "HgN/A
4:20 pm63 °FPartly sunny.9 mph59%30.12 "HgN/A
4:50 pm63 °FPartly sunny.7 mph59%30.12 "HgN/A
5:20 pm64 °FPartly sunny.7 mph60%30.12 "HgN/A
6:20 pm63 °FPartly sunny.6 mph59%30.12 "HgN/A
6:50 pm61 °FPartly sunny.7 mph63%30.12 "HgN/A
7:20 pm61 °FPartly sunny.8 mph63%30.15 "HgN/A
7:50 pm61 °FPartly sunny.7 mph63%30.15 "HgN/A
8:20 pm61 °FPartly sunny.7 mph63%30.15 "HgN/A
8:50 pm59 °FPartly sunny.8 mph72%30.18 "HgN/A
9:20 pm59 °FPassing clouds.5 mph72%30.18 "HgN/A
10:20 pm57 °FOvercast.5 mph77%30.18 "HgN/A
10:50 pm57 °FOvercast.5 mph77%30.21 "HgN/A
11:20 pm57 °FOvercast.5 mph77%30.21 "HgN/A
11:50 pm57 °FOvercast.6 mph77%30.21 "HgN/A
Weather by CustomWeather, © 2020

See weather overview

Advertising